CAPE
2 2 2 2 2 2 0 0 1 3 5 2 3 2 1 2 1 0 0 0 0 0 0 0 0 0 0 0 0 0 0 0 0 0 0 0 0 0 0 0 0 3 0 0 0 0 0 0 0 0 0 0 0 0
2 2 1 2 2 2 2 1 1 2 2 7 4 3 2 1 0 2 0 0 1 1 0 0 0 0 0 0 0 0 0 0 0 0 0 0 0 0 0 0 0 0 0 0 0 0 0 0 0 0 0 0 0 0
0 0 1 2 0 1 1 2 3 3 2 5 4 3 3 2 1 3 2 2 0 2 0 0 0 0 0 0 0 0 0 0 0 0 0 0 0 0 0 0 0 0 0 0 0 0 0 0 0 0 0 0 0 0
0 1 1 1 1 1 1 2 2 1 3 5 4 3 3 1 2 2 3 1 0 1 0 0 0 0 0 0 0 0 0 0 0 0 0 0 2 0 0 0 0 0 0 0 0 0 0 0 0 0 0 0 0 0
1 1 1 1 2 1 1 1 2 1 1 4 6 3 2 2 1 0 1 2 0 0 0 0 0 0 0 0 0 0 0 0 0 0 0 1 0 2 0 0 0 0 0 0 0 0 0 0 0 0 0 0 0 0
1 1 2 1 1 1 0 0 3 2 2 3 3 3 3 2 0 0 0 0 0 1 1 0 0 0 0 0 0 0 0 0 0 0 0 0 0 1 4 2 0 0 0 0 0 0 0 0 0 0 0 0 0 0
2 1 1 1 2 2 0 0 0 7 10 6 1 4 3 2 2 0 0 0 0 2 1 0 0 0 0 0 0 0 0 0 0 0 1 1 4 2 1 2 0 0 2 0 0 0 0 0 0 0 0 0 0 0
2 0 2 2 1 3 2 1 0 2 13 5 3 2 2 1 1 0 0 0 0 0 1 2 0 0 0 0 0 0 0 1 2 1 1 5 5 2 3 0 0 0 0 0 0 0 0 0 0 0 0 0 0 0
1 3 2 0 2 2 1 0 0 1 18 12 2 1 1 2 2 0 0 1 0 2 0 3 1 0 0 0 0 0 2 1 2 2 1 1 0 2 0 0 1 13 1 0 0 0 0 0 0 0 0 0 0 0
1 2 0 1 0 2 2 1 0 1 4 0 0 0 0 0 0 3 0 1 1 1 0 2 1 0 0 0 0 0 3 1 1 0 0 1 0 0 3 8 16 3 3 0 3 0 0 0 0 0 0 0 0 0
0 1 1 1 1 2 2 1 0 0 0 0 0 0 0 0 0 2 0 1 1 1 1 1 1 0 0 0 0 0 0 1 1 1 1 3 2 9 1 2 9 1 3 1 0 0 0 1 0 1 15 70 0 0
0 0 1 1 1 5 4 3 0 0 0 0 0 0 0 0 0 0 0 5 3 1 0 0 0 0 0 0 1 0 2 1 3 1 20 4 1 0 2 3 11 2 11 2 2 2 0 13 59 77 143 150 206 94
0 0 0 0 7 7 10 3 0 0 0 0 0 0 0 0 0 0 0 0 0 0 0 0 0 0 0 1 0 5 10 7 0 10 6 10 5 0 0 3 4 1 19 26 23 30 32 0 32 103 196 224 34 2
1 0 0 0 2 3 9 5 1 0 0 0 0 0 0 0 0 0 0 0 0 0 0 0 0 0 0 0 0 3 8 1 7 7 1 10 0 0 0 1 1 6 44 27 10 64 87 98 198 156 7 6 12 14
3 1 0 0 1 3 4 1 0 1 0 0 0 0 0 0 0 0 0 0 0 0 0 0 0 0 2 0 1 5 3 6 0 7 1 9 1 0 0 0 1 3 21 53 14 11 37 35 87 70 84 97 96 64
1 0 2 6 10 4 1 1 2 0 0 0 0 0 0 0 0 0 0 0 0 0 0 0 0 4 9 5 5 5 3 3 1 0 2 9 14 7 0 0 0 0 3 8 18 24 19 64 39 43 49 50 31 16
0 0 0 1 6 1 0 0 0 0 0 0 0 0 0 0 0 0 0 0 0 0 0 10 1 1 15 8 5 2 4 1 0 0 3 3 5 14 0 0 0 0 0 0 8 21 40 31 19 15 3 1 0 2
0 0 0 2 0 1 0 0 0 0 0 0 0 0 0 0 0 0 0 0 0 0 0 2 6 5 1 6 3 6 1 0 0 0 5 13 40 36 10 0 0 0 0 0 2 3 17 23 37 45 47 18 7 2
0 2 2 4 0 0 1 0 0 1 0 0 0 0 0 0 0 0 0 0 0 0 0 1 7 10 1 3 6 7 1 1 0 4 19 31 31 10 12 0 5 4 0 0 0 0 1 0 2 7 29 24 21 7
0 2 2 2 0 0 0 1 0 0 0 0 0 0 0 0 0 0 0 0 0 0 0 0 0 0 13 1 2 0 4 4 11 16 34 33 25 7 0 0 1 0 0 0 0 0 0 0 0 0 1 3 0 0
0 5 2 0 0 0 0 0 1 6 3 0 0 0 0 0 0 0 0 0 0 0 0 0 0 0 0 0 2 1 0 2 0 38 24 20 21 8 0 0 0 0 0 0 0 0 0 0 0 0 0 0 0 0
0 1 1 0 1 2 1 0 0 0 0 0 0 0 0 0 0 0 0 0 0 0 0 0 0 0 0 0 16 0 0 0 14 35 6 0 15 14 1 0 0 0 0 0 0 0 1 1 0 0 0 0 0 0
1 0 1 3 1 1 0 0 0 0 0 0 0 0 0 0 0 0 0 0 0 0 2 0 0 0 1 10 19 1 0 0 42 46 32 19 18 14 0 0 0 0 0 0 0 0 0 0 0 0 0 0 0 0
3 1 1 1 1 0 0 1 0 0 0 0 0 0 0 0 0 0 0 0 0 0 0 1 1 0 0 1 6 0 0 35 51 26 26 33 29 4 0 0 0 0 0 0 0 0 0 0 0 0 0 0 0 0
0 1 1 0 1 1 2 2 2 0 0 0 0 0 0 0 18 16 9 9 2 7 15 11 23 15 0 1 30 18 0 43 67 40 5 7 11 0 0 0 0 0 0 0 0 0 0 0 0 0 0 0 0 0
0 1 0 2 3 2 3 2 0 0 0 0 0 0 0 2 3 3 21 47 52 50 34 61 50 42 49 53 120 57 29 9 2 65 15 0 5 6 0 0 0 0 0 0 0 0 0 0 0 0 0 0 0 0
1 2 1 1 0 0 0 0 0 0 0 0 0 7 0 4 16 4 11 36 56 56 36 66 100 87 77 82 71 60 55 22 7 23 22 3 15 14 0 0 0 0 0 0 0 0 0 0 0 0 0 0 0 0
2 2 1 2 0 0 0 0 0 0 0 0 0 9 3 2 0 0 0 11 64 92 46 25 20 75 73 49 58 81 81 44 19 8 1 0 0 0 0 0 0 0 0 0 0 0 0 0 0 0 0 0 0 0
1 1 1 3 2 1 0 0 0 0 0 0 0 0 0 0 0 0 0 1 50 152 105 47 21 14 21 19 15 24 46 59 44 34 11 6 0 0 0 0 0 0 0 0 0 0 0 0 0 0 0 0 0 0
1 0 1 1 1 0 0 0 0 0 0 0 0 0 0 0 0 0 0 1 102 151 98 6 0 0 20 60 39 13 4 49 36 28 2 5 0 0 0 0 0 0 0 0 0 0 0 0 0 0 0 1 8 5
0 0 0 0 0 0 0 0 0 0 0 0 0 0 0 0 0 0 5 0 2 16 0 0 0 0 0 6 12 20 38 18 26 11 1 2 0 0 0 0 0 0 0 0 0 0 0 0 0 0 8 10 1 18
1 0 0 0 0 0 0 0 0 0 0 0 0 0 0 0 0 0 6 5 3 18 1 0 0 0 0 0 0 13 2 12 51 31 4 0 0 0 0 0 0 0 0 0 0 0 0 0 3 10 19 12 5 23
0 0 0 0 0 0 0 0 0 0 0 0 0 0 0 0 0 0 10 24 10 0 0 1 0 0 0 0 0 2 0 6 27 11 0 0 0 0 0 0 0 0 0 0 0 0 0 1 9 21 27 26 19 20
CIN
-0 -0 -0 -0 -0 -0 -0 -0 -1 -1 -0 -0 -0 -0 -0 -0 -0 -0 -0 -0 -0 -0 -0 -0 -0 -0 -0 -0 -0 -0 -0 -0 -0 -0 -0 -0 -0 -0 -0 -0 -0 -5 -0 -0 -0 -0 -0 -0 -0 -0 -0 -0 -0 -0
-0 -0 -0 -0 -0 -0 -0 -0 -0 -1 -1 -0 -0 -0 -0 -0 -0 -1 -0 -0 -3 -0 -0 -0 -0 -0 -0 -0 -0 -0 -0 -0 -0 -0 -0 -0 -0 -0 -0 -0 -0 -0 -0 -0 -0 -0 -0 -0 -0 -0 -0 -0 -0 -0
-0 -0 -0 -0 -0 -0 -0 -0 -0 -2 -1 -1 -0 -0 -0 -0 -0 -0 -0 -0 -1 -0 -0 -0 -0 -0 -0 -0 -0 -0 -0 -0 -0 -0 -0 -0 -0 -0 -0 -0 -0 -0 -0 -0 -0 -0 -0 -0 -0 -0 -0 -0 -0 -0
-0 -0 -0 -0 -0 -0 -0 -0 -0 -3 -3 -3 -0 -0 -0 -0 -0 -0 -0 -0 -0 -0 -0 -0 -0 -0 -0 -0 -0 -0 -0 -0 -0 -0 -0 -0 -0 -0 -0 -0 -0 -0 -0 -0 -0 -0 -0 -0 -0 -0 -0 -0 -0 -0
-0 -0 -0 -0 -0 -0 -1 -1 -1 -1 -5 -3 -0 -0 -0 -0 -0 -0 -0 -0 -0 -0 -0 -0 -0 -0 -0 -0 -0 -0 -0 -0 -0 -0 -0 -0 -1 -0 -0 -0 -0 -0 -0 -0 -0 -0 -0 -0 -0 -0 -0 -0 -0 -0
-0 -0 -0 -2 -1 -2 -4 -1 -5 -4 -5 -4 -3 -2 -0 -0 -0 -0 -0 -0 -0 -0 -0 -0 -0 -0 -0 -0 -0 -0 -0 -0 -0 -0 -0 -0 -0 -0 -0 -0 -0 -0 -0 -0 -0 -0 -0 -0 -0 -0 -0 -0 -0 -0
-1 -1 -0 -2 -1 -1 -1 -1 -0 -5 -4 -1 -3 -2 -0 -0 -0 -0 -0 -0 -0 -0 -0 -0 -0 -0 -0 -0 -0 -0 -0 -0 -0 -0 -0 -0 -0 -0 -0 -0 -0 -0 -0 -0 -0 -0 -0 -0 -0 -0 -0 -0 -0 -0
-1 -1 -2 -1 -4 -2 -3 -2 -9 -11 -0 -1 -1 -0 -0 -0 -0 -0 -0 -0 -0 -0 -0 -0 -0 -0 -0 -0 -0 -0 -0 -0 -0 -0 -0 -3 -1 -2 -0 -0 -0 -0 -0 -0 -0 -0 -0 -0 -0 -0 -0 -0 -0 -0
-0 -1 -1 -3 -3 -3 -4 -3 -5 -13 -0 -1 -0 -0 -0 -0 -0 -0 -0 -0 -0 -0 -0 -0 -0 -0 -0 -0 -0 -0 -3 -0 -0 -0 -0 -0 -0 -0 -0 -0 -0 -17 -9 -0 -0 -0 -0 -0 -0 -0 -0 -0 -0 -0
-1 -2 -3 -3 -3 -6 -8 -8 -7 -8 -0 -0 -0 -0 -0 -0 -0 -0 -2 -2 -0 -0 -0 -0 -0 -0 -0 -0 -0 -0 -3 -0 -0 -0 -0 -0 -0 -0 -11 -12 -1 -7 -0 -0 -0 -0 -0 -0 -0 -0 -0 -0 -0 -0
-0 -3 -2 -3 -6 -7 -7 -7 -0 -0 -0 -0 -0 -0 -0 -0 -0 -0 -0 -0 -0 -0 -0 -0 -0 -0 -0 -0 -0 -0 -0 -0 -0 -0 -0 -0 -1 -1 -6 -0 -37 -0 -0 -0 -0 -0 -0 -0 -0 -11 -19 -8 -0 -0
-0 -3 -6 -7 -5 -1 -3 -5 -0 -0 -0 -0 -0 -0 -0 -0 -0 -0 -0 -1 -0 -0 -0 -0 -0 -0 -0 -0 -0 -0 -0 -0 -0 -2 -0 -7 -14 -0 -0 -0 -23 -0 -0 -0 -1 -0 -0 -10 -18 -26 -15 -27 -15 -22
-0 -0 -0 -7 -0 -0 -0 -2 -0 -0 -0 -0 -0 -0 -0 -0 -0 -0 -0 -0 -0 -0 -0 -0 -0 -0 -0 -0 -0 -0 -0 -3 -1 -1 -12 -1 -17 -0 -0 -0 -47 -7 -24 -2 -1 -2 -19 -0 -23 -4 -5 -5 -40 -10
-2 -6 -0 -1 -1 -2 -0 -0 -0 -0 -0 -0 -0 -0 -0 -0 -0 -0 -0 -0 -0 -0 -0 -0 -0 -0 -0 -0 -4 -0 -5 -0 -0 -7 -7 -13 -5 -0 -0 -0 -0 -37 -3 -21 -19 -5 -0 -4 -0 -1 -46 -56 -17 -20
-4 -7 -0 -0 -8 -2 -0 -0 -0 -0 -0 -0 -0 -0 -0 -0 -0 -0 -0 -0 -0 -0 -0 -0 -0 -0 -13 -2 -5 -4 -1 -0 -0 -1 -21 -39 -20 -0 -0 -0 -0 -78 -46 -16 -23 -17 -2 -0 -3 -0 -0 -9 -13 -35
-1 -0 -1 -3 -0 -1 -0 -0 -0 -0 -0 -0 -0 -0 -0 -0 -0 -0 -0 -0 -0 -0 -0 -0 -0 -12 -1 -4 -0 -1 -0 -0 -0 -0 -42 -62 -53 -50 -0 -0 -0 -0 -35 -66 -35 -30 -16 -22 -35 -32 -27 -38 -55 -79
-0 -0 -2 -3 -0 -0 -0 -0 -0 -0 -0 -0 -0 -0 -0 -0 -0 -0 -0 -0 -0 -0 -1 -26 -2 -5 -8 -0 -0 -3 -0 -0 -0 -0 -37 -74 -74 -56 -33 -0 -0 -0 -0 -0 -79 -73 -65 -65 -79 -89 -83 -6 -7 -0
-0 -1 -0 -0 -0 -0 -0 -0 -0 -0 -0 -0 -0 -0 -0 -0 -0 -0 -0 -0 -0 -0 -0 -5 -28 -7 -0 -0 -0 -3 -0 -0 -0 -0 -63 -86 -70 -61 -72 -0 -0 -0 -0 -0 -88 -100 -87 -72 -72 -64 -67 -92 -129 -19
-0 -0 -0 -0 -0 -0 -0 -0 -0 -0 -0 -0 -0 -0 -0 -0 -0 -0 -0 -0 -0 -0 -0 -8 -13 -4 -1 -0 -3 -10 -12 -9 -0 -60 -70 -78 -88 -87 -85 -0 -110 -83 -0 -0 -0 -0 -47 -57 -82 -97 -59 -69 -76 -76
-0 -0 -0 -0 -0 -0 -0 -0 -0 -0 -0 -0 -0 -0 -0 -0 -0 -0 -0 -0 -0 -0 -0 -0 -0 -0 -10 -7 -21 -0 -20 -16 -30 -48 -24 -47 -77 -83 -24 -0 -21 -0 -0 -0 -0 -0 -0 -0 -0 -0 -22 -13 -0 -0
-0 -0 -0 -0 -0 -0 -0 -0 -0 -2 -2 -0 -0 -0 -0 -0 -0 -0 -0 -0 -0 -0 -0 -0 -0 -0 -0 -0 -29 -26 -0 -54 -0 -35 -44 -34 -69 -90 -0 -0 -0 -0 -0 -0 -0 -0 -0 -0 -0 -0 -0 -0 -0 -1
-0 -0 -0 -0 -0 -0 -0 -0 -0 -0 -0 -0 -0 -0 -0 -0 -0 -0 -0 -0 -0 -0 -0 -0 -0 -0 -0 -0 -28 -0 -0 -0 -64 -59 -15 -7 -44 -48 -5 -0 -0 -0 -0 -0 -0 -0 -0 -0 -0 -0 -0 -0 -0 -0
-0 -0 -3 -2 -0 -0 -0 -0 -0 -0 -0 -0 -0 -0 -0 -0 -0 -0 -0 -0 -0 -0 -65 -0 -0 -0 -17 -48 -32 -64 -0 -0 -51 -66 -67 -68 -72 -74 -0 -0 -0 -0 -0 -0 -0 -0 -0 -0 -0 -0 -0 -0 -0 -0
-2 -0 -0 -0 -0 -0 -0 -0 -0 -0 -0 -0 -0 -0 -0 -0 -0 -0 -0 -0 -0 -0 -0 -65 -68 -0 -0 -49 -42 -0 -0 -83 -80 -101 -98 -66 -49 -82 -0 -0 -0 -0 -0 -0 -0 -0 -0 -0 -0 -0 -0 -0 -0 -0
-0 -1 -0 -0 -0 -0 -0 -0 -0 -0 -0 -0 -0 -0 -0 -0 -19 -11 -6 -15 -34 -34 -51 -82 -76 -70 -2 -32 -48 -50 -0 -108 -49 -51 -90 -102 -112 -137 -76 -0 -0 -0 -0 -0 -0 -0 -0 -0 -0 -0 -0 -0 -0 -0
-0 -0 -0 -0 -0 -0 -0 -0 -0 -0 -0 -0 -0 -0 -0 -12 -2 -14 -13 -24 -33 -49 -60 -60 -55 -47 -49 -56 -38 -56 -79 -150 -35 -42 -79 -0 -98 -89 -0 -0 -0 -0 -0 -0 -0 -0 -0 -0 -0 -0 -0 -0 -0 -0
-0 -0 -0 -1 -0 -0 -0 -0 -0 -0 -0 -0 -0 -36 -0 -5 -2 -6 -19 -53 -42 -66 -104 -107 -101 -85 -58 -69 -89 -107 -115 -147 -125 -97 -115 -122 -92 -74 -0 -0 -0 -0 -0 -0 -0 -0 -0 -0 -0 -0 -0 -0 -0 -0
-0 -0 -0 -0 -1 -0 -0 -0 -0 -0 -0 -0 -0 -12 -17 -9 -4 -0 -2 -63 -71 -78 -96 -123 -148 -145 -105 -112 -114 -102 -110 -139 -153 -181 -113 -0 -0 -0 -0 -0 -0 -0 -0 -0 -0 -0 -0 -0 -0 -0 -0 -0 -0 -0
-0 -0 -0 -0 -0 -0 -0 -0 -0 -0 -0 -0 -0 -0 -0 -0 -0 -0 -0 -30 -70 -48 -39 -63 -86 -132 -132 -136 -134 -132 -126 -93 -52 -38 -38 -46 -0 -0 -0 -0 -0 -0 -0 -0 -0 -0 -0 -0 -0 -0 -0 -0 -0 -0
-0 -0 -0 -0 -0 -0 -0 -0 -0 -0 -0 -0 -0 -0 -0 -0 -0 -0 -0 -36 -44 -19 -28 -37 -0 -0 -70 -58 -64 -98 -135 -106 -70 -37 -14 -36 -4 -0 -0 -0 -0 -0 -0 -0 -0 -0 -0 -0 -0 -0 -0 -12 -42 -59
-1 -0 -0 -0 -0 -0 -0 -0 -0 -0 -0 -0 -0 -0 -0 -0 -0 -0 -95 -0 -13 -66 -29 -0 -0 -0 -0 -45 -65 -55 -51 -107 -116 -97 -64 -89 -0 -0 -0 -0 -0 -0 -0 -0 -0 -0 -0 -0 -0 -0 -33 -44 -80 -59
-0 -0 -0 -0 -0 -0 -0 -0 -0 -0 -0 -0 -0 -0 -0 -0 -0 -0 -69 -53 -32 -33 -28 -0 -0 -0 -0 -0 -5 -120 -3 -77 -91 -100 -162 -2 -0 -0 -0 -0 -0 -0 -0 -0 -0 -0 -0 -0 -45 -33 -35 -47 -78 -36
-0 -0 -0 -0 -0 -0 -0 -0 -0 -0 -0 -0 -0 -0 -0 -0 -0 -0 -103 -96 -19 -0 -25 -56 -0 -0 -0 -0 -0 -97 -9 -127 -121 -86 -0 -0 -0 -0 -0 -0 -0 -0 -0 -0 -0 -0 -0 -10 -44 -45 -43 -52 -58 -37
Wind_Speed
39 39 39 38 39 41 41 40 39 35 33 31 30 29 29 29 29 28 25 22 26 25 23 18 19 19 19 18 23 23 26 19 19 18 18 20 22 24 26 28 33 33 31 33 34 40 51 29 27 32 27 25 26 30
39 38 38 40 41 41 41 39 37 33 31 29 28 27 26 26 26 25 25 22 21 21 23 22 14 9 11 16 17 17 18 18 16 16 17 20 22 24 23 30 22 35 35 35 30 32 24 21 21 24 25 26 30 33
37 38 39 39 40 40 40 38 36 33 30 28 25 24 23 24 23 22 23 22 23 24 25 21 19 18 15 7 4 15 16 12 12 12 17 19 20 21 21 21 23 23 30 42 41 39 37 34 32 31 25 30 32 35
37 37 38 39 40 40 39 37 34 31 28 26 24 23 22 22 22 22 23 21 22 23 25 22 23 21 18 12 5 5 6 12 12 15 18 20 22 15 19 16 17 21 25 44 56 51 48 49 45 39 34 34 35 35
39 39 38 38 38 38 37 35 32 30 28 26 24 22 22 21 21 22 20 17 13 21 28 28 29 18 19 14 9 4 4 6 9 17 18 19 19 20 17 17 19 17 20 41 57 49 51 49 43 43 45 43 42 41
39 38 37 37 36 36 35 35 32 29 27 24 22 21 21 21 21 24 22 18 15 15 25 29 24 18 20 16 13 7 5 6 9 16 19 16 14 13 12 12 13 15 17 27 52 51 52 49 46 44 46 45 40 40
38 38 38 37 36 35 35 33 33 31 27 24 22 21 20 18 18 19 21 20 15 16 23 25 20 21 23 23 21 20 9 7 9 10 11 10 10 4 6 11 17 17 21 29 34 46 48 46 44 39 35 35 33 36
37 36 36 35 35 34 33 33 31 30 26 23 21 20 19 18 18 20 17 7 11 19 18 20 19 24 23 27 26 19 12 10 12 9 10 13 18 14 11 9 13 11 15 24 31 40 43 41 37 36 35 33 35 36
34 34 34 34 33 32 31 30 28 27 24 22 21 21 18 16 17 18 17 15 7 17 17 15 21 24 26 24 23 17 11 18 13 9 11 11 15 16 16 15 19 16 12 17 19 25 23 36 38 36 33 32 32 31
33 33 33 33 31 30 29 27 25 26 21 21 18 17 19 15 16 13 17 17 14 12 12 15 18 27 26 29 26 14 12 14 9 11 11 11 12 12 16 21 19 20 17 13 12 15 6 22 26 29 32 30 27 22
33 32 32 31 30 29 27 24 22 21 19 16 16 17 16 17 16 17 17 15 13 14 13 15 14 25 24 25 21 11 15 8 9 10 13 13 17 18 25 24 27 22 20 17 20 24 29 30 31 28 26 22 16 10
33 33 31 30 29 27 25 22 18 16 16 15 16 16 16 15 16 16 15 14 12 14 16 18 20 13 22 13 14 11 11 10 8 4 13 6 10 22 23 23 28 22 3 26 26 27 29 30 30 26 24 22 15 13
31 31 29 29 27 25 24 16 12 14 14 15 15 15 15 13 14 14 15 13 12 15 19 24 24 23 20 14 14 13 13 10 8 14 7 2 14 19 20 21 23 17 14 20 25 26 28 29 27 28 34 23 8 9
30 30 29 28 26 24 19 14 8 12 13 13 14 15 13 12 11 10 11 13 16 17 24 23 21 20 18 16 15 14 14 12 9 6 6 11 12 14 15 19 17 17 12 12 6 5 18 30 21 27 32 38 38 34
30 29 30 30 23 18 11 7 8 12 13 14 14 15 11 9 12 14 16 21 22 23 23 22 20 18 17 17 16 14 14 12 10 6 3 6 7 8 10 13 16 15 11 11 6 7 7 6 4 8 13 28 30 23
28 28 19 17 15 9 8 9 11 12 14 14 12 13 10 14 14 16 17 24 21 23 21 19 18 17 16 16 15 14 14 13 13 12 11 7 5 3 6 7 10 14 17 18 17 13 12 15 18 20 18 24 25 28
24 18 18 17 11 8 8 13 13 14 15 15 15 13 16 26 28 24 24 23 22 22 20 19 19 17 17 15 14 14 14 14 13 13 10 8 5 2 1 3 8 13 14 8 8 9 11 15 14 10 9 9 9 7
19 20 18 13 9 10 14 14 16 17 18 17 18 19 18 23 27 28 27 27 24 21 20 19 19 20 18 17 17 17 17 15 14 11 10 9 7 5 7 3 6 11 14 13 6 9 9 12 11 9 16 13 15 14
20 25 16 8 11 13 14 14 13 19 16 19 22 29 29 29 30 29 28 27 25 22 21 21 20 20 19 18 19 19 16 16 15 13 11 9 9 8 7 6 4 7 6 7 7 4 2 0 2 2 10 7 10 15
27 15 10 7 10 13 15 14 12 16 19 20 25 26 25 26 25 25 25 22 19 19 21 23 24 22 21 19 19 20 18 16 15 14 13 9 10 10 6 6 7 7 9 8 7 7 6 6 5 5 4 10 15 13
11 9 10 10 12 14 16 17 16 18 23 22 22 22 22 22 25 25 23 17 20 22 23 25 26 24 21 20 20 20 18 16 15 15 14 12 11 9 10 8 6 7 6 5 5 6 8 9 7 7 8 9 12 13
11 9 12 11 13 14 18 16 21 21 22 23 23 21 22 21 21 20 18 20 22 22 23 24 24 22 21 18 19 18 18 16 15 14 15 16 15 11 10 7 6 7 5 6 5 5 5 3 3 7 10 10 9 10
9 11 13 12 13 16 20 16 21 21 20 19 19 19 18 17 17 17 20 21 22 21 21 21 20 20 20 19 17 18 18 16 14 14 14 15 13 10 8 6 6 6 4 5 8 6 16 3 18 23 19 15 18 16
12 13 15 13 11 19 19 21 21 21 20 20 19 18 17 16 16 18 19 19 21 20 22 20 17 17 15 8 19 18 16 15 12 9 12 9 8 9 9 7 7 4 21 26 28 19 15 4 19 20 23 25 22 19
14 15 13 21 19 20 20 20 20 20 19 19 18 18 17 17 17 18 18 18 19 20 20 19 18 18 17 15 8 21 20 18 14 11 12 13 13 7 7 7 7 7 4 20 16 15 19 20 22 24 24 23 22 22
17 14 20 19 19 19 18 17 17 18 18 18 19 18 17 17 17 16 16 16 16 16 16 18 17 15 13 17 15 14 18 17 12 13 14 15 20 16 22 21 20 2 11 21 21 23 23 23 24 24 24 23 22 23
21 20 21 21 19 19 19 21 20 19 18 17 17 16 16 16 14 14 15 15 15 16 17 17 17 19 16 14 14 12 10 11 11 11 10 10 13 20 16 21 18 19 21 20 21 23 25 26 26 24 22 21 22 22
21 20 21 20 22 22 21 19 18 18 17 17 17 16 15 14 14 15 17 17 17 16 16 17 16 16 14 13 13 12 13 13 10 8 6 8 9 10 12 14 17 21 17 16 18 21 24 25 24 23 23 22 21 21
21 20 20 21 22 21 22 22 19 19 17 16 16 16 16 17 19 19 19 18 17 17 16 16 16 15 15 14 14 15 15 16 14 10 9 8 10 9 11 17 20 18 17 15 11 18 22 23 23 21 21 21 21 19
23 23 21 20 21 22 22 24 22 20 19 19 19 20 20 19 20 20 19 18 18 17 17 16 16 20 19 18 19 19 19 21 18 13 10 8 9 13 15 19 21 20 16 15 17 19 20 21 21 21 21 20 19 19
20 22 24 23 22 23 24 24 25 25 25 24 23 23 23 21 19 18 18 19 20 19 18 17 17 20 20 17 19 21 21 23 22 17 13 7 14 16 18 21 23 20 18 18 20 20 19 20 20 19 18 18 19 20
24 26 24 23 22 20 21 22 23 24 25 26 26 24 22 21 20 18 17 17 18 20 20 20 18 19 18 20 19 19 16 17 19 20 9 12 14 19 22 22 22 21 20 21 20 19 20 20 19 17 16 18 18 17
21 22 24 22 21 19 19 20 20 21 22 24 26 27 26 25 23 20 18 20 17 24 22 20 19 18 17 19 19 19 20 19 23 6 12 15 17 20 23 23 22 21 21 20 20 20 20 18 16 14 15 16 16 16
Wind_Direction
313 317 322 327 327 325 327 327 330 337 342 345 349 351 354 356 359 1 359 9 359 352 346 353 348 345 348 347 342 347 343 351 347 346 345 340 331 323 316 306 294 285 278 271 266 263 261 279 273 265 276 281 285 285
315 320 323 324 324 325 327 330 333 338 341 343 346 349 352 354 357 1 355 3 2 353 343 344 338 328 327 338 342 347 347 349 352 352 349 344 335 322 319 307 306 287 275 274 269 267 272 280 277 281 281 280 283 284
319 319 321 323 325 326 328 331 333 336 340 342 345 349 352 353 357 0 355 358 357 352 351 356 357 356 351 325 294 344 349 358 355 354 345 339 327 327 315 303 292 294 291 270 269 264 263 269 273 279 280 282 286 284
317 319 320 321 323 325 328 332 335 338 339 342 345 347 350 352 353 354 351 356 355 353 348 351 351 343 346 353 350 230 331 356 350 347 332 327 325 332 316 294 282 298 300 272 260 260 263 262 264 272 274 281 286 286
313 315 318 321 324 326 329 332 336 337 337 340 342 345 346 350 351 350 347 349 358 356 343 340 342 1 358 4 6 342 258 277 325 335 329 325 329 326 312 305 266 283 267 273 256 261 260 261 263 267 269 274 279 281
313 314 316 320 322 325 327 329 333 336 338 339 340 343 345 348 352 351 354 6 8 3 350 345 350 357 351 352 352 337 294 319 333 339 338 340 331 335 339 313 271 260 249 229 258 259 258 260 262 266 268 270 276 280
313 313 314 316 319 322 324 327 329 333 336 339 341 342 345 350 352 351 350 356 6 6 354 347 355 355 348 350 357 353 7 10 360 5 2 345 344 7 343 296 273 249 236 231 231 254 258 258 259 264 270 273 278 279
313 314 314 316 316 319 323 325 327 330 334 338 342 345 346 348 345 347 358 6 11 359 1 354 354 349 354 349 355 8 28 39 25 57 52 40 25 29 22 307 293 268 245 233 227 235 254 257 260 261 265 269 272 273
315 315 316 316 318 320 322 325 328 330 334 339 340 341 349 352 353 358 1 9 37 0 359 5 354 347 348 357 360 20 60 14 53 61 47 51 43 41 351 321 296 288 265 231 213 207 206 253 251 255 259 262 263 264
314 315 315 316 317 319 322 326 329 331 338 339 344 347 345 360 358 18 359 2 12 18 12 4 354 332 345 342 330 27 69 43 84 87 65 70 45 10 346 322 319 311 323 199 186 185 241 254 250 246 249 253 256 261
311 313 314 314 315 318 322 326 329 335 341 345 345 344 352 353 357 357 356 2 16 12 9 4 10 329 343 296 278 84 352 141 125 95 67 66 47 348 339 332 325 315 319 101 144 163 184 189 204 226 236 243 238 238
310 310 312 314 315 318 320 323 331 337 340 346 347 348 350 353 354 353 357 8 12 8 358 360 353 26 281 236 235 190 196 185 149 108 78 64 17 338 345 356 345 333 51 103 130 148 158 170 175 196 210 217 225 237
311 312 312 313 315 318 320 325 334 339 340 342 343 346 351 354 345 351 352 3 9 356 343 297 285 298 287 212 205 198 233 212 233 94 107 51 331 347 357 15 26 8 26 116 132 135 153 144 159 170 165 192 189 106
312 311 310 312 314 314 319 326 342 339 338 339 339 333 340 342 347 3 9 352 335 341 281 274 272 278 268 241 218 230 253 246 256 163 112 307 333 351 10 34 46 58 48 43 95 144 146 130 156 154 156 150 144 157
313 311 307 303 311 317 331 345 344 333 333 332 338 334 332 347 346 340 325 301 279 274 282 279 271 255 253 231 229 242 259 265 248 229 237 293 323 354 12 35 53 73 72 45 83 94 34 87 148 119 150 151 105 103
317 314 330 334 331 346 347 344 331 332 328 328 329 331 347 334 329 319 316 267 290 282 286 284 264 252 247 247 254 260 261 271 264 273 269 264 284 14 8 31 61 82 92 99 105 112 115 117 141 138 138 148 153 154
318 327 327 326 339 353 356 325 327 322 323 321 324 324 308 287 274 297 284 270 289 279 282 279 257 255 255 256 250 250 241 244 246 262 243 230 234 252 352 23 9 6 15 68 71 78 104 122 132 122 94 139 132 118
319 311 319 336 353 340 320 318 314 316 311 312 311 307 305 293 282 274 257 257 268 274 275 264 259 250 255 251 260 262 256 244 243 226 223 215 205 182 151 165 330 353 4 7 24 19 26 33 41 46 48 53 56 57
310 284 325 4 334 329 325 323 323 314 320 314 303 270 277 278 260 238 244 248 255 263 258 251 243 239 245 251 259 260 257 262 251 236 219 214 207 188 178 200 239 317 329 333 334 319 208 304 176 187 172 186 32 47
261 316 347 12 334 325 325 335 340 324 314 304 283 275 279 261 258 255 252 259 260 260 256 242 236 238 252 257 241 244 256 254 255 254 201 211 212 191 211 225 263 275 295 288 277 262 250 284 288 243 265 12 42 36
355 3 353 342 327 325 326 321 324 311 275 272 279 276 262 261 249 245 247 262 253 251 248 242 241 242 247 268 266 249 242 242 263 237 234 233 213 226 186 201 250 282 272 252 278 302 332 345 305 314 0 19 41 48
343 2 341 334 332 334 311 314 277 269 266 260 264 257 247 247 248 245 251 249 247 252 246 246 251 250 228 225 228 232 229 241 250 233 204 176 176 198 192 224 251 292 247 210 268 302 314 287 315 25 49 51 52 44
3 341 334 335 333 322 284 303 266 264 255 252 253 242 239 244 249 252 244 246 245 250 250 253 262 242 219 188 225 224 230 235 232 214 204 189 197 215 223 231 246 214 263 238 188 192 33 8 53 69 65 54 58 47
326 322 312 343 345 280 278 263 265 250 246 244 242 239 241 246 255 242 244 244 245 256 246 251 260 243 257 344 176 218 226 226 236 261 230 259 253 227 225 265 294 258 47 81 101 148 160 40 57 65 69 73 62 53
301 304 337 257 269 255 248 249 241 236 239 238 239 237 243 251 242 245 252 255 255 249 246 251 260 249 256 268 329 164 186 204 232 243 233 221 211 304 285 273 299 223 277 56 47 46 58 60 69 78 77 71 69 65
282 292 242 253 250 238 233 232 232 229 234 236 234 243 250 246 243 250 258 270 266 258 253 249 250 263 271 238 251 238 199 212 237 233 223 199 157 103 120 73 66 154 80 70 67 74 73 73 77 77 74 69 66 73
244 238 234 234 231 226 225 221 227 228 228 235 241 245 247 249 267 270 270 273 270 258 250 249 243 235 243 250 250 255 249 243 244 246 257 258 206 156 155 101 67 78 87 75 76 78 80 81 78 74 69 65 75 73
235 243 227 225 219 217 228 234 232 233 238 244 242 244 253 266 272 281 270 274 267 260 257 256 252 250 262 258 252 252 249 246 258 273 311 337 350 345 5 39 70 91 76 70 71 75 79 80 78 77 78 75 69 66
233 233 232 227 226 230 227 227 237 234 238 242 250 252 262 260 261 264 271 269 265 258 261 262 254 251 251 252 254 245 239 231 237 257 277 287 269 309 16 69 89 83 80 71 48 62 74 79 76 71 72 72 76 88
234 225 233 239 235 228 232 222 232 238 246 252 255 257 261 258 261 272 265 260 256 259 260 261 259 230 237 248 242 232 224 212 221 240 265 289 339 45 67 87 96 94 82 73 73 72 72 75 74 74 75 85 86 71
246 238 234 232 235 234 229 238 246 247 248 246 245 247 255 262 264 263 253 249 245 247 248 251 250 231 231 239 227 224 228 218 217 230 240 11 61 71 87 102 107 100 93 91 92 88 84 85 87 97 101 80 71 75
213 216 230 235 246 247 249 250 243 248 242 232 227 232 230 229 232 238 240 234 230 230 230 238 241 230 232 225 226 223 234 227 221 216 54 69 71 91 105 106 108 104 102 101 99 95 102 110 120 118 109 82 84 85
213 218 221 236 243 251 248 243 233 229 216 213 218 217 221 220 222 233 244 233 241 215 222 227 229 229 229 220 217 220 218 222 203 254 90 92 93 102 108 111 107 105 104 102 103 115 130 135 133 126 98 91 102 105